TimeEST,TemperatureF,Dew PointF,Humidity,Sea Level PressureIn,VisibilityMPH,Wind Direction,Wind SpeedMPH,Gust SpeedMPH,PrecipitationIn,Events,Conditions,WindDirDegrees,DateUTC
12:53 AM,50.0,48.0,93,29.91,6.0,Calm,Calm,-,N/A,,Clear,0,2013-12-03 05:53:00
1:53 AM,48.9,48.0,97,29.91,5.0,Calm,Calm,-,N/A,,Clear,0,2013-12-03 06:53:00
2:53 AM,50.0,50.0,100,29.91,2.5,Calm,Calm,-,N/A,,Clear,0,2013-12-03 07:53:00
3:07 AM,51.8,50.0,94,29.91,3.0,WSW,3.5,-,N/A,,Clear,240,2013-12-03 08:07:00
3:18 AM,50.0,48.2,94,29.91,2.0,WSW,3.5,-,N/A,,Clear,250,2013-12-03 08:18:00
3:31 AM,51.8,50.0,94,29.91,3.0,WSW,3.5,-,N/A,,Clear,240,2013-12-03 08:31:00
3:53 AM,51.1,50.0,96,29.90,2.5,SW,4.6,-,N/A,,Clear,220,2013-12-03 08:53:00
4:01 AM,51.8,51.8,100,29.90,5.0,SSW,5.8,-,N/A,,Clear,200,2013-12-03 09:01:00
4:53 AM,52.0,51.1,97,29.91,5.0,SW,3.5,-,N/A,,Clear,230,2013-12-03 09:53:00
5:15 AM,51.8,51.8,100,29.92,1.2,Calm,Calm,-,N/A,,Clear,0,2013-12-03 10:15:00
5:29 AM,50.0,48.2,94,29.92,1.0,SW,3.5,-,N/A,,Mist,220,2013-12-03 10:29:00
5:37 AM,50.0,48.2,94,29.92,0.5,Calm,Calm,-,N/A,Fog,Fog,0,2013-12-03 10:37:00
5:53 AM,50.0,48.9,96,29.93,0.8,Calm,Calm,-,N/A,,Mist,0,2013-12-03 10:53:00
5:56 AM,51.8,50.0,94,29.93,1.0,Calm,Calm,-,N/A,,Scattered Clouds,0,2013-12-03 10:56:00
6:06 AM,50.0,48.2,94,29.92,2.5,South,3.5,-,N/A,,Mostly Cloudy,190,2013-12-03 11:06:00
6:22 AM,50.0,50.0,100,29.93,5.0,Calm,Calm,-,N/A,,Overcast,0,2013-12-03 11:22:00
6:53 AM,50.0,48.9,96,29.94,2.0,Calm,Calm,-,N/A,,Partly Cloudy,0,2013-12-03 11:53:00
7:13 AM,51.8,50.0,94,29.95,0.8,Calm,Calm,-,N/A,,Mostly Cloudy,0,2013-12-03 12:13:00
7:33 AM,51.8,50.0,94,29.95,1.5,Calm,Calm,-,N/A,,Overcast,0,2013-12-03 12:33:00
7:44 AM,51.8,51.8,100,29.95,3.0,SSW,3.5,-,N/A,,Mostly Cloudy,210,2013-12-03 12:44:00
7:53 AM,52.0,51.1,97,29.96,5.0,SSW,4.6,-,N/A,,Mostly Cloudy,210,2013-12-03 12:53:00
8:53 AM,57.9,55.9,93,29.96,10.0,South,3.5,-,N/A,,Partly Cloudy,170,2013-12-03 13:53:00
9:53 AM,62.1,57.0,84,29.99,10.0,SW,4.6,-,N/A,,Mostly Cloudy,230,2013-12-03 14:53:00
10:44 AM,60.8,55.4,82,29.99,0.2,WSW,3.5,-,N/A,,Haze,250,2013-12-03 15:44:00
10:53 AM,61.0,55.9,83,29.99,3.0,SW,4.6,-,N/A,,Haze,220,2013-12-03 15:53:00
11:53 AM,-9999,-9999,N/A,29.99,-9999.0,ESE,3.5,-,N/A,,Unknown,120,2013-12-03 16:53:00
12:53 PM,64.9,55.9,73,29.94,10.0,North,-9999.0,-,N/A,,Clear,0,2013-12-03 17:53:00
1:53 PM,66.0,55.9,70,29.93,10.0,North,-9999.0,-,N/A,,Clear,0,2013-12-03 18:53:00
2:53 PM,64.9,57.9,78,29.92,10.0,North,-9999.0,-,N/A,,Clear,0,2013-12-03 19:53:00
3:53 PM,63.0,59.0,87,29.92,10.0,SE,9.2,-,N/A,,Partly Cloudy,140,2013-12-03 20:53:00
4:53 PM,62.1,59.0,90,29.93,7.0,SE,10.4,-,N/A,,Scattered Clouds,140,2013-12-03 21:53:00
5:53 PM,62.1,59.0,90,29.94,10.0,SE,9.2,-,N/A,,Overcast,140,2013-12-03 22:53:00
6:53 PM,62.1,57.9,86,29.94,10.0,SSE,9.2,-,N/A,,Overcast,150,2013-12-03 23:53:00
7:53 PM,62.1,59.0,90,29.96,10.0,SE,10.4,-,N/A,,Overcast,140,2013-12-04 00:53:00
8:53 PM,63.0,59.0,87,29.97,10.0,SE,9.2,-,N/A,,Mostly Cloudy,140,2013-12-04 01:53:00
9:53 PM,62.1,59.0,90,29.97,10.0,SSE,6.9,-,N/A,,Mostly Cloudy,150,2013-12-04 02:53:00
10:53 PM,62.1,59.0,90,29.98,10.0,South,5.8,-,N/A,,Clear,170,2013-12-04 03:53:00
11:53 PM,63.0,57.9,84,29.99,10.0,SSW,5.8,-,N/A,,Clear,200,2013-12-04 04:53:00